User: anonymous   Login
Location: Bojarzin Observatory
(39.7980°N, 89.7627°W)
Time: 10:34:02
(UTC-05:00)
Language:

ISS - Orbit

View from above orbital plane
View from above orbital plane
View from above satellite
View from above satellite

Ground track
Ground track

The orbit data is extracted from the following two-line orbital elements,

1 25544U 98067A   18174.37268031  .00016717  00000-0  10270-3 0  9031
2 25544  51.6406 347.8806 0003891 223.6876 136.3969 15.53938061 39476
Epoch (UTC): 23 June 2018 08:56:39
Eccentricity: 0.0003891
inclination: 51.6406°
perigee height: 402 km
apogee height: 408 km
right ascension of ascending node: 347.8806°
argument of perigee: 223.6876°
revolutions per day: 15.53938061
mean anomaly at epoch: 136.3969°
orbit number at epoch: 3947

The dashed part of the orbit path shows where the satellite is in the earth's shadow,  

DLR